User: anonymous   Login
Location: Unspecified
(0.0000°N, 0.0000°E)
Time: 07:01:28
(UTC+00:00)
Language:

BIRD JJ - Orbit

View from above orbital plane
View from above orbital plane
View from above satellite
View from above satellite

Ground track
Ground track

The orbit data is extracted from the following two-line orbital elements,

1 42820U 98067MU  19082.93120092 +.00125540 +17160-4 +35532-3 0  9999
2 42820 051.6283 358.5364 0004814 165.2974 194.8174 15.93194104098017
Epoch (UTC): 23 March 2019 22:20:55
Eccentricity: 0.0004814
inclination: 51.6283°
perigee height: 290 km
apogee height: 296 km
right ascension of ascending node: 358.5364°
argument of perigee: 165.2974°
revolutions per day: 15.93194104
mean anomaly at epoch: 194.8174°
orbit number at epoch: 9801

The dashed part of the orbit path shows where the satellite is in the earth's shadow,  

DLR